User: anonymous   Login
Location: Unspecified
(0.0000°N, 0.0000°E)
Time: 14:10:53
(UTC+02:00)
Language:

Ariane H10 - Orbit

View from above orbital plane
View from above orbital plane
View from above satellite
View from above satellite

Ground track
Ground track

The orbit data is extracted from the following two-line orbital elements,

1 19622U 88098B   15210.02727449  .00008990  00000-0  14023-2 0  9995
2 19622 003.8344 271.4100 6458921 043.9977 344.2337 03.38917037280673
Epoch (UTC): 29 July 2015 00:39:16
Eccentricity: 0.6458921
inclination: 3.8344°
perigee height: 251 km
apogee height: 24435 km
right ascension of ascending node: 271.4100°
argument of perigee: 43.9977°
revolutions per day: 3.38917037
mean anomaly at epoch: 344.2337°
orbit number at epoch: 28067

The dashed part of the orbit path shows where the satellite is in the earth's shadow,  

DLR